Location: Asheville, NC
(35.6000°N, 82.5500°W)
Time: 22:56:24

NO-84 - Pass Details

Date: 14 March 2018
Orbit: 339 x 558 km, 55.0° (Epoch: 15 March)

Event Time Altitude Azimuth Distance (km) Brightness Sun altitude
Exits shadow 06:06:01 12° 340° (NNW) 1,549 ? -20.3°
Maximum altitude 06:08:58 28° 38° (NE) 897 ? -19.7°
Drops below altitude 10° 06:12:03 10° 100° (E) 1,555 ? -19.1°
Sets 06:14:15 0° 112° (ESE) 2,376 ? -18.7°
